Wind_Speed
8 8 8 8 7 7 7 6 6 6 5 5 5 5 5 5 5 5 5 5 5 5 5 6 7 7 8 9 9 10 11 11 14 15 13 10 5 4 5 4 5 6 6 5 3 1 1 2 1 1 3 3 3 2 3 2 1 2 3 3 0 2 3 4 6 2 1 4 6 10 7 2 5 7 6 6 8 13 16 22 25 22 23 23 23 21 19 19
9 9 8 8 8 7 7 7 7 6 6 6 6 6 6 6 6 6 6 7 6 7 6 7 7 7 8 9 9 11 11 12 14 10 6 3 4 8 6 4 6 7 7 5 4 1 4 2 1 2 3 3 3 1 1 1 2 2 3 2 3 5 5 5 5 4 2 4 8 10 7 4 7 9 8 5 9 13 13 23 28 26 27 25 22 18 18 19
9 9 9 8 8 8 8 8 7 7 7 7 6 6 6 6 7 6 7 7 7 8 8 8 8 9 9 9 10 10 11 14 10 2 5 7 8 7 3 4 7 9 8 6 4 3 6 3 1 2 1 1 1 1 1 2 3 2 3 1 6 7 5 8 10 10 7 7 8 10 9 10 13 12 8 6 11 13 10 18 22 25 30 29 25 22 22 21
10 9 9 9 9 8 8 8 7 7 7 7 7 7 8 8 7 8 8 8 9 9 9 9 10 10 10 10 10 10 12 13 4 5 6 6 4 0 3 6 9 11 10 7 3 4 6 4 3 2 2 1 1 2 3 4 4 3 4 4 6 5 3 11 14 14 12 10 11 13 12 14 16 12 8 7 9 10 13 20 21 24 32 32 29 27 25 24
10 10 10 9 9 9 8 8 8 8 8 8 8 9 9 9 9 9 10 10 10 10 11 11 11 11 11 11 10 10 10 7 2 5 3 1 4 7 7 9 11 11 9 5 4 5 6 6 4 4 3 2 2 1 4 7 6 3 5 8 8 4 3 11 14 12 14 14 16 15 9 11 13 11 10 8 5 11 21 27 27 28 31 30 28 27 26 24
11 11 10 10 10 9 9 9 9 9 9 9 9 10 10 10 10 10 11 11 11 11 11 12 11 11 11 11 11 11 7 2 3 5 5 8 11 10 9 10 11 10 6 4 5 6 6 7 6 6 4 2 3 4 4 6 7 4 4 7 12 11 9 14 15 13 16 15 14 12 10 13 13 12 12 10 15 24 30 30 28 28 27 26 26 24 23 22
12 11 11 11 11 10 10 10 10 10 10 10 10 11 11 11 11 11 12 11 12 11 12 13 13 12 12 12 12 11 9 11 11 10 11 13 12 10 9 10 9 7 5 5 5 6 7 7 8 6 4 1 2 5 5 4 7 6 5 6 11 13 11 15 16 16 18 17 18 16 15 16 13 10 9 16 29 32 28 25 24 24 24 25 25 24 23 22
13 12 12 12 12 11 11 11 11 11 11 11 11 12 12 12 12 12 12 12 13 12 12 14 14 14 13 13 12 9 12 15 12 10 12 12 11 10 9 9 7 5 5 6 6 7 7 6 7 5 3 2 3 4 3 4 4 6 5 6 7 9 10 14 15 19 22 22 23 19 17 19 20 15 11 24 32 24 19 20 21 22 24 24 23 24 23 22
13 12 12 12 12 12 12 12 12 12 12 12 12 12 12 13 13 13 13 13 14 13 13 14 14 14 13 13 10 8 12 13 9 7 8 9 10 9 10 10 7 5 5 7 8 9 8 6 6 6 4 4 3 3 1 2 2 4 4 4 6 10 13 15 18 24 23 21 19 12 16 23 23 15 12 22 21 14 17 19 20 23 23 21 21 21 19 17
13 12 12 12 12 12 12 12 12 12 12 12 13 13 13 14 14 14 15 14 14 14 13 14 14 13 12 12 7 5 10 10 7 7 6 7 9 9 10 10 8 6 5 8 9 11 10 7 6 5 5 3 3 3 1 1 2 3 4 8 10 12 17 17 19 27 24 20 16 9 13 20 15 5 7 16 13 14 21 21 20 21 20 18 17 15 13 13
13 13 12 12 12 12 13 13 13 13 13 13 13 13 14 14 14 14 14 14 14 13 12 13 13 12 12 11 10 9 11 11 10 9 8 9 9 9 10 9 8 7 7 8 10 12 11 9 6 4 4 2 2 3 3 2 3 5 7 10 13 13 18 20 19 22 17 11 9 6 8 13 5 2 10 17 13 15 22 23 23 20 17 14 12 9 9 10
13 13 13 13 13 13 14 14 14 13 13 13 13 13 13 13 13 13 13 13 13 12 12 12 12 12 11 12 15 15 14 13 12 12 11 11 11 11 10 10 10 11 10 10 11 12 12 10 8 6 5 2 1 2 2 4 6 8 6 5 10 9 12 19 14 11 6 3 4 4 2 9 1 7 15 16 16 19 22 25 25 19 14 12 9 8 7 7
14 14 14 14 14 14 14 14 13 13 13 12 12 12 12 12 12 12 12 12 12 11 12 12 11 12 10 12 15 14 12 12 12 12 13 13 13 13 13 13 13 12 10 10 11 12 12 11 9 8 6 4 1 2 4 7 8 8 4 1 6 6 6 11 6 3 3 4 5 7 0 7 6 13 17 14 18 20 22 27 22 16 14 11 7 6 4 4
15 15 14 14 14 14 13 13 12 12 12 11 11 11 11 11 11 12 11 11 11 11 11 11 11 10 10 12 13 12 13 13 13 13 13 15 15 14 13 13 11 9 8 10 11 11 11 9 8 7 6 5 4 3 5 7 5 4 2 1 3 2 5 9 6 2 3 5 7 9 2 6 8 15 15 14 18 17 21 26 18 15 14 10 4 2 1 2
16 15 14 14 14 13 13 12 11 11 11 11 10 10 11 11 11 10 10 10 10 10 11 11 10 9 9 12 13 12 12 13 13 13 13 14 14 12 10 9 7 7 8 10 11 11 10 8 7 6 4 4 3 2 3 4 3 2 1 3 3 2 4 11 11 3 3 4 6 9 2 5 8 12 14 17 22 19 21 23 16 15 12 6 3 3 4 3
16 15 15 14 14 13 12 11 11 11 10 10 10 9 9 10 10 10 10 10 10 10 10 9 9 8 7 9 10 9 10 10 9 10 11 12 11 9 6 5 5 6 8 9 10 10 9 7 5 4 3 2 1 4 4 4 4 3 1 4 3 3 2 7 9 1 4 1 2 4 2 4 5 10 18 22 25 25 22 22 18 12 7 5 5 6 6 5
15 15 14 14 13 12 11 10 10 10 9 9 8 8 8 9 9 9 10 10 11 11 9 8 8 7 8 11 10 9 8 7 7 8 9 9 9 7 5 5 5 6 8 7 8 7 6 5 4 3 1 1 3 5 3 2 4 3 1 3 4 4 3 3 6 4 3 3 1 3 3 5 8 13 23 24 23 24 21 21 18 8 5 6 8 8 8 7
14 14 14 13 12 11 10 10 9 9 8 8 7 7 8 8 9 10 11 12 11 8 7 9 7 3 8 12 9 6 6 7 8 8 8 8 7 5 5 5 5 6 6 5 5 5 5 3 3 1 2 2 2 4 2 4 5 5 4 3 4 3 4 4 5 5 6 5 4 5 5 8 10 11 20 23 19 18 17 18 13 4 6 8 10 11 12 12
14 13 13 12 11 10 10 9 8 8 7 7 7 7 7 9 9 11 12 12 10 5 3 7 9 3 3 7 6 6 6 6 8 9 9 8 7 7 6 5 5 7 6 4 3 6 7 4 4 1 1 3 5 7 8 9 8 7 6 4 4 4 5 6 6 5 4 4 6 7 6 8 9 9 16 22 18 12 13 12 5 4 9 12 14 15 16 16
14 13 12 11 11 10 9 9 8 8 7 6 7 7 7 7 5 6 10 13 14 11 9 9 11 11 8 5 7 8 7 8 10 11 11 10 9 9 7 6 6 5 4 4 3 4 7 4 2 5 7 9 10 11 11 8 4 3 2 3 5 5 6 5 6 7 1 1 7 6 4 6 8 10 15 20 16 12 12 4 7 11 14 16 18 19 19 19
14 13 12 11 11 10 9 9 9 8 7 6 7 6 6 5 2 4 6 10 15 16 17 17 17 19 18 13 12 10 8 9 11 12 12 12 11 8 8 7 5 2 2 4 4 2 5 4 6 10 11 11 8 7 7 5 2 2 3 4 6 5 7 7 6 6 1 1 5 3 4 8 10 10 12 14 11 11 10 7 15 17 18 18 19 20 20 20
14 12 11 12 11 10 10 10 9 9 8 8 7 6 7 7 6 7 6 8 14 17 18 19 21 24 24 21 19 17 13 10 12 14 13 13 13 9 8 7 4 2 3 4 5 2 2 3 11 15 10 5 3 2 5 4 3 3 3 2 4 4 4 7 5 4 2 0 4 4 4 8 11 8 8 12 9 11 13 16 17 18 20 18 19 19 20 21
14 11 10 10 11 11 11 10 11 10 9 9 8 7 8 8 7 8 6 6 13 17 17 19 21 24 25 23 21 21 18 13 12 14 14 14 15 12 10 8 4 3 3 4 5 4 3 6 13 15 7 2 5 4 5 3 2 4 4 3 5 4 1 4 5 4 3 1 2 4 5 6 9 4 7 11 12 16 18 21 20 19 21 19 19 20 21 23
12 10 8 8 9 11 12 11 11 11 11 10 9 9 8 7 6 6 5 4 7 12 14 17 17 18 21 20 18 19 19 14 9 11 16 17 15 11 9 10 6 3 5 8 9 7 6 8 7 4 5 6 6 6 3 4 2 4 5 6 5 5 5 5 4 5 4 4 2 3 5 4 5 3 3 5 11 14 15 19 20 18 20 19 19 20 21 23
12 10 7 6 7 9 11 11 10 10 12 11 10 10 8 6 4 3 3 2 4 7 8 10 11 11 14 14 13 14 13 11 9 9 14 18 17 9 6 9 7 4 7 7 7 6 8 10 3 4 4 6 6 5 3 6 3 4 5 8 9 7 6 4 2 5 4 4 3 4 4 4 5 4 3 4 5 7 9 14 15 15 17 18 19 20 21 23
13 10 8 7 6 7 9 10 9 10 11 11 10 9 7 5 2 1 2 2 3 5 3 5 7 6 9 9 11 11 5 6 10 12 15 18 18 10 4 6 5 5 6 5 3 3 6 8 4 5 4 5 5 5 5 7 4 3 5 6 7 4 3 2 2 2 1 3 3 3 1 5 6 5 4 5 4 5 6 9 11 13 15 16 18 19 20 22
15 11 10 10 8 9 11 9 8 11 11 10 10 9 7 5 3 2 2 3 3 4 5 4 5 5 6 9 14 11 2 4 8 11 16 18 16 11 5 3 3 4 4 5 1 3 4 4 2 5 5 4 5 5 6 8 7 3 4 4 6 5 5 5 4 2 3 2 4 2 3 3 5 5 4 6 5 4 5 6 7 10 13 15 16 18 20 21
17 16 16 15 12 11 11 9 10 13 12 9 10 11 7 5 5 3 3 2 3 3 4 3 4 5 7 12 15 8 4 7 7 7 15 16 13 9 5 5 5 4 3 5 3 4 2 3 4 6 5 4 6 5 7 10 5 6 5 6 6 5 6 5 4 2 1 1 5 4 2 2 5 5 2 3 5 3 4 4 4 7 11 14 15 16 18 20
17 18 18 17 15 14 15 14 14 14 12 10 11 11 8 7 4 4 2 2 1 2 2 3 5 5 8 11 9 4 5 5 2 7 13 12 11 6 2 5 6 3 1 3 5 4 0 2 4 7 5 5 5 2 5 9 4 4 5 5 4 5 4 4 4 2 2 1 5 6 4 2 4 5 3 1 3 5 4 3 4 8 11 12 14 15 17 19
19 19 19 17 18 20 21 20 18 15 13 13 13 10 9 7 4 2 4 3 0 1 3 4 4 5 8 7 2 2 4 1 2 9 8 6 8 4 2 3 3 3 1 3 1 4 2 1 1 3 4 5 5 3 1 3 3 5 6 5 6 5 4 4 2 3 2 3 6 8 8 5 3 5 3 2 2 4 8 5 5 8 11 12 13 14 16 18
22 21 21 20 21 23 24 24 20 17 18 16 14 11 9 5 2 3 6 2 1 1 3 3 2 5 7 5 2 3 2 1 4 8 4 2 5 3 2 2 1 3 3 5 3 5 5 1 2 2 3 4 6 4 4 4 4 6 5 4 3 4 4 4 4 3 1 5 6 5 5 5 3 4 2 3 6 1 6 8 9 10 12 13 13 15 17 18
25 24 24 24 24 24 25 25 21 19 22 19 15 13 9 2 2 4 3 1 1 3 4 3 2 4 5 3 3 4 3 2 4 5 3 3 4 3 3 4 4 2 2 3 2 4 3 4 3 2 2 4 6 3 3 5 5 5 4 5 3 2 3 3 3 1 3 6 4 2 5 2 5 2 4 6 9 9 2 9 14 16 16 15 15 16 17 17
25 25 25 25 26 25 26 28 25 22 24 23 18 13 6 2 5 4 3 2 2 2 3 3 3 4 5 3 2 4 2 2 5 3 2 3 3 4 4 3 5 3 1 4 1 1 3 5 2 1 3 5 7 4 2 1 1 4 5 5 4 2 1 3 4 2 4 5 3 1 3 2 4 2 5 6 7 8 6 14 19 20 19 17 16 17 17 17
25 24 26 27 26 27 28 29 27 21 22 25 18 8 4 5 4 3 6 6 1 1 2 3 5 5 5 3 3 4 2 2 5 4 1 3 2 3 4 4 5 3 2 3 2 3 2 5 3 4 2 6 8 5 5 5 3 4 4 5 5 4 4 4 4 3 4 5 4 2 1 2 3 2 4 4 6 10 15 19 19 19 18 17 17 17 17 17
24 24 28 28 27 28 27 26 22 17 21 24 13 5 6 6 2 2 5 5 1 1 1 2 5 5 2 2 2 4 3 2 3 4 2 3 3 3 3 4 6 4 4 3 2 2 3 5 6 2 1 6 6 3 5 6 2 2 3 4 3 4 5 2 3 5 3 3 3 2 2 2 2 1 3 3 7 11 14 16 17 17 16 17 17 17 17 15
24 25 25 24 25 25 23 21 18 15 20 19 7 5 7 3 3 3 3 3 4 4 4 2 3 4 3 1 2 4 2 1 3 3 2 3 3 4 4 4 6 8 6 4 3 2 2 4 5 2 1 4 4 2 4 3 2 2 3 3 4 4 5 2 3 0 3 1 4 1 2 2 1 1 2 3 5 7 8 10 13 14 14 15 16 17 15 12
24 23 23 23 23 22 21 21 18 19 22 15 5 6 3 1 4 4 1 2 3 5 6 3 2 4 4 2 3 4 1 1 3 2 2 3 3 5 5 3 4 9 10 6 2 3 4 3 5 1 2 1 2 3 3 3 3 4 3 4 3 1 4 4 1 2 2 2 4 1 3 3 1 2 1 1 2 3 2 4 9 10 12 14 16 16 13 9
23 22 22 24 24 22 22 21 20 23 21 10 8 9 3 2 4 3 3 4 3 3 4 4 3 4 4 4 3 4 3 3 3 3 3 3 3 4 6 3 2 5 10 7 2 1 3 1 6 1 3 2 2 3 2 4 3 4 3 2 3 1 1 1 1 2 1 3 4 4 4 3 3 4 4 5 6 4 4 5 6 8 12 15 16 14 10 7
21 17 13 17 22 21 22 22 23 24 16 6 9 9 2 2 4 2 4 3 3 3 3 3 2 2 3 5 3 4 5 4 4 4 3 2 3 3 4 3 2 0 4 8 5 1 3 2 4 3 0 1 4 2 3 2 2 3 2 1 1 2 3 2 2 3 3 3 4 5 5 3 4 5 6 8 8 8 7 6 6 10 16 18 16 11 7 6
18 11 6 12 18 18 21 21 20 17 8 3 6 4 1 2 3 5 7 4 2 2 2 3 3 3 3 3 3 3 4 5 6 4 3 3 3 2 1 1 3 2 2 5 5 1 2 3 2 3 2 0 1 2 5 5 3 2 1 0 1 1 1 1 1 3 3 3 3 4 6 5 4 3 6 9 8 9 9 7 8 15 19 19 14 6 4 6
16 7 5 11 14 18 22 17 11 7 3 3 2 2 1 1 1 4 7 7 4 1 2 3 4 4 4 3 3 2 2 3 4 3 3 3 2 2 2 1 3 4 3 4 3 1 2 2 2 2 1 2 3 3 4 6 6 5 4 3 3 3 1 2 4 1 2 3 3 4 6 5 4 2 4 8 8 9 12 12 13 19 20 16 11 6 6 8
14 4 5 12 12 18 21 10 4 3 2 3 2 2 2 1 1 2 3 5 5 2 2 2 2 3 3 3 2 2 2 2 3 3 3 4 3 1 1 1 2 4 4 3 1 2 3 3 2 3 3 5 4 2 1 3 5 5 2 2 3 3 4 3 6 3 1 1 1 2 3 4 3 2 3 6 9 12 17 17 15 19 18 11 9 9 10 11
13 7 9 12 11 16 16 4 2 3 3 2 1 1 3 2 2 1 1 2 3 2 2 2 3 4 4 3 3 4 4 2 3 4 2 3 3 1 1 1 1 3 4 2 1 2 3 3 2 3 3 2 4 4 4 2 4 2 1 1 3 2 3 4 4 3 1 2 1 1 3 3 2 1 3 6 9 11 16 15 11 15 14 7 9 12 13 14
13 11 11 13 15 18 12 3 2 4 4 2 2 3 3 2 3 3 1 2 2 2 2 2 3 6 4 3 4 5 5 3 3 4 3 3 2 1 1 1 2 2 2 2 4 5 4 2 3 1 3 4 4 4 4 4 1 2 2 1 2 3 5 3 1 2 1 4 5 4 6 4 1 1 2 4 7 8 12 13 10 10 9 9 12 14 15 15
10 7 7 12 19 19 11 5 4 3 5 4 4 5 4 3 6 9 7 6 5 4 2 2 3 5 3 3 3 4 6 6 4 4 4 4 2 0 1 2 4 4 3 4 6 8 5 2 4 4 5 7 5 3 3 2 1 1 1 2 2 4 6 4 1 2 2 3 4 5 6 3 3 1 2 4 4 6 9 11 10 11 12 14 15 15 16 16
8 4 3 9 17 20 16 13 8 4 4 5 3 4 6 5 5 9 11 10 11 10 5 4 2 3 3 4 4 5 7 7 4 3 4 5 2 2 1 2 2 5 5 6 7 6 3 1 3 6 8 8 5 5 4 3 3 2 2 3 5 4 5 5 3 3 3 1 3 6 6 2 5 5 6 6 6 5 8 11 13 14 15 16 15 14 14 14
7 3 5 7 10 15 15 15 13 7 4 6 4 3 9 10 4 6 11 11 13 14 8 4 4 4 5 6 6 6 7 6 6 5 4 3 2 2 1 1 2 5 6 6 5 4 3 2 3 5 6 5 4 5 4 3 4 5 4 5 7 5 6 7 4 5 4 3 7 9 5 4 9 11 7 6 6 6 8 14 18 17 14 13 12 11 12 12
6 3 9 11 7 6 10 14 16 12 7 8 6 3 8 11 8 7 10 10 11 14 9 4 8 12 11 9 7 5 6 6 7 7 4 3 3 1 1 2 1 2 3 3 3 4 4 3 3 3 3 3 4 5 4 3 3 4 6 9 11 8 6 7 7 8 7 6 9 9 5 7 12 12 6 6 9 10 12 18 20 16 11 9 10 11 12 12
8 3 8 11 6 3 8 16 19 16 13 10 7 6 9 12 12 10 8 5 6 11 13 9 10 14 13 11 9 8 8 8 7 6 4 4 4 4 2 1 1 2 2 2 1 2 3 2 1 3 2 3 2 3 4 4 3 5 7 11 11 8 6 8 9 10 8 8 11 11 11 12 12 9 7 9 12 12 13 15 13 10 8 9 12 13 12 12
10 7 6 6 6 4 5 11 15 13 12 10 8 9 9 9 12 10 7 7 7 8 12 14 13 10 10 12 13 12 11 10 9 8 7 6 5 4 4 3 3 3 1 2 0 1 2 2 1 3 0 4 2 2 3 2 3 4 9 11 9 6 6 8 9 7 6 9 13 12 11 13 13 10 8 12 14 10 9 12 12 10 10 12 14 14 13 13
13 11 7 3 3 4 4 7 9 8 8 9 9 9 8 10 11 8 4 7 9 6 7 14 14 8 7 11 14 13 11 9 8 8 9 8 6 5 4 5 8 7 2 2 2 0 2 2 1 5 2 4 4 2 2 3 4 5 12 15 11 7 8 8 7 7 9 11 10 8 8 10 12 10 7 9 10 10 13 14 14 13 13 14 14 14 14 13
17 13 8 4 1 3 4 4 6 8 8 9 10 10 9 10 8 8 4 4 6 5 4 9 11 7 6 10 14 14 10 10 12 12 12 11 10 10 7 7 10 8 5 4 2 1 3 4 2 3 3 4 4 2 1 6 5 7 11 11 11 11 10 9 7 9 12 9 7 7 9 10 9 8 5 6 9 12 14 16 16 16 15 14 14 13 12 12
Wind_Direction
203 202 203 204 204 207 208 212 214 215 216 221 227 229 233 237 243 250 253 259 267 273 281 285 293 299 306 312 317 324 327 328 327 321 311 301 282 156 125 68 39 19 10 2 351 327 159 122 125 30 30 37 42 49 64 71 104 52 79 97 287 207 203 194 184 183 217 265 299 320 313 261 290 305 316 302 278 293 299 296 294 289 283 283 287 294 303 310
211 210 211 209 210 212 212 216 217 218 222 227 230 235 240 244 250 256 260 266 271 275 281 285 293 297 304 311 316 321 323 327 328 325 332 350 142 141 123 59 20 2 358 343 326 207 164 150 107 46 39 40 27 43 115 180 160 127 111 119 228 203 212 220 219 243 245 266 285 308 310 280 295 309 320 310 291 303 302 296 299 297 298 300 298 300 305 306
219 219 218 216 217 218 219 222 221 224 230 233 237 242 246 249 254 259 264 268 271 277 280 285 290 293 299 303 308 315 319 325 328 28 79 94 129 137 110 20 352 342 337 329 312 209 190 196 90 81 12 25 23 251 215 197 192 196 129 140 242 219 238 270 272 273 279 290 296 311 311 298 302 305 305 306 303 303 287 291 297 299 306 312 311 308 307 305
227 226 226 225 225 225 227 229 230 233 236 240 244 247 250 253 256 258 262 266 270 274 276 279 282 286 289 293 302 307 319 326 311 137 107 111 127 79 342 331 327 324 318 317 291 221 213 202 131 144 207 307 232 248 247 209 202 191 156 182 233 209 235 274 280 287 296 308 309 308 308 301 303 302 296 308 316 299 284 293 295 296 306 314 316 313 308 304
233 233 233 233 234 234 236 239 240 242 243 245 246 249 251 253 255 257 260 263 266 269 272 274 276 280 283 289 297 303 325 345 172 157 143 208 295 296 299 302 308 312 307 291 245 213 210 193 164 168 195 249 178 187 252 215 188 178 209 227 240 208 211 271 279 289 297 306 307 306 305 299 303 300 292 288 269 275 290 300 302 301 306 311 315 314 310 305
238 238 238 239 241 241 243 245 246 247 248 250 250 253 255 256 258 260 261 264 266 271 274 276 278 281 285 290 295 300 311 295 231 224 242 280 292 288 285 291 303 306 290 249 222 203 199 191 187 187 184 234 191 192 249 226 200 219 258 243 249 246 242 268 275 283 295 300 297 294 293 298 304 300 297 276 262 281 295 302 303 306 310 312 314 314 313 313
241 240 240 242 243 244 245 247 249 250 251 253 254 256 258 260 262 263 265 267 270 275 279 281 283 285 289 291 293 295 274 267 278 269 268 279 282 281 279 288 303 296 261 223 218 202 198 193 198 197 167 216 225 219 260 267 213 214 262 259 261 262 257 268 272 280 290 289 285 290 292 293 294 294 304 284 280 290 301 305 305 308 316 317 318 320 321 320
240 239 240 242 244 245 247 249 251 253 255 256 258 261 263 265 266 269 271 274 276 280 283 284 286 286 289 290 290 287 270 279 292 275 269 271 268 270 270 280 293 287 248 216 216 206 204 198 204 206 179 208 227 234 284 308 225 195 235 267 273 277 279 284 286 287 288 286 288 295 288 282 285 289 288 281 285 297 306 309 310 313 318 320 325 328 326 322
240 241 241 243 245 247 250 252 254 257 260 263 265 268 271 273 274 277 278 279 282 283 285 285 285 287 287 284 285 282 276 288 299 274 266 261 259 260 262 270 271 276 252 217 211 209 210 206 213 214 213 226 226 252 339 24 254 201 213 269 283 287 296 301 296 290 288 288 288 290 285 284 289 297 282 276 288 309 307 308 315 318 319 327 336 336 333 329
243 244 245 247 249 252 254 256 259 261 265 269 272 275 277 278 279 281 282 283 284 283 284 281 281 282 280 276 257 255 282 289 290 280 267 256 257 257 258 261 258 266 261 232 217 216 219 214 216 212 224 240 219 253 270 156 267 280 295 308 301 301 305 302 290 287 289 290 283 257 269 282 289 312 270 277 306 316 303 308 316 317 321 335 347 344 343 335
247 248 249 252 254 256 258 260 262 264 269 272 274 276 277 279 281 282 283 283 283 283 280 277 278 276 274 268 230 233 280 285 282 281 270 262 258 253 252 249 249 259 266 254 231 223 224 220 221 217 228 241 226 272 282 259 297 321 337 323 306 314 310 294 283 285 289 293 281 220 251 287 296 174 251 277 312 309 299 307 311 314 330 350 360 355 347 328
249 251 253 255 257 259 260 262 265 267 270 272 274 275 277 278 280 281 281 281 281 279 277 274 275 273 273 264 247 255 279 279 277 276 269 263 253 248 249 248 257 270 272 258 239 229 225 224 227 231 243 231 243 322 303 313 322 319 347 326 303 336 316 289 283 283 275 271 265 160 288 309 258 218 258 287 305 296 296 302 308 323 352 10 6 352 337 316
251 253 256 257 258 260 261 263 266 268 269 271 272 274 275 277 278 279 278 280 280 278 277 275 273 276 270 261 262 269 273 270 270 268 263 259 254 254 257 261 269 276 266 243 237 232 225 229 230 236 253 246 250 308 293 315 319 309 335 308 302 351 316 284 292 300 290 278 228 149 172 290 254 251 267 297 298 293 298 300 312 343 6 10 357 343 331 312
250 252 254 256 257 259 260 261 263 265 267 268 269 270 272 273 274 277 278 278 279 277 277 276 275 274 259 257 271 272 265 267 265 260 260 259 260 263 266 273 274 268 250 233 233 231 228 232 236 245 256 258 271 292 312 327 325 305 327 356 325 326 279 289 306 322 321 301 201 160 202 260 266 276 283 302 297 297 298 298 322 355 1 8 2 13 14 353
248 248 249 250 252 253 254 256 257 259 261 263 266 269 271 273 274 275 276 276 276 277 277 277 275 266 257 263 270 267 263 263 260 257 257 260 265 270 273 274 265 249 236 227 227 228 230 229 235 248 254 268 291 351 351 344 346 12 305 309 326 208 264 302 304 242 227 293 165 153 221 263 268 277 287 303 298 297 295 299 332 352 354 21 50 87 95 74
244 243 244 245 246 246 247 248 251 253 256 259 263 267 270 273 275 275 276 276 277 277 277 277 269 253 257 272 266 260 260 256 253 250 249 255 263 268 268 255 237 226 222 221 224 227 230 231 235 245 241 250 113 84 40 360 335 351 196 251 265 216 254 312 308 234 167 270 147 166 227 270 275 277 292 301 296 296 299 309 336 355 6 59 92 98 100 91
239 239 240 241 241 241 241 242 245 248 252 256 259 265 270 272 274 275 274 274 276 276 275 268 259 252 254 262 260 256 258 251 239 235 239 248 256 257 238 213 202 207 214 216 220 217 218 209 188 214 247 95 106 98 56 334 299 311 270 230 242 225 220 279 301 322 42 62 302 253 222 253 270 277 290 295 293 298 307 317 334 8 63 93 99 94 88 79
234 235 236 237 237 236 236 239 242 246 251 256 260 264 270 273 272 272 271 270 269 272 273 247 225 256 261 246 243 254 258 241 229 228 235 235 231 220 199 187 185 193 193 192 200 186 180 162 134 169 9 58 120 118 163 233 226 247 249 236 263 255 239 255 272 302 354 13 328 298 276 270 276 279 286 291 297 306 310 313 322 21 100 105 98 87 82 77
231 231 232 234 234 233 233 235 239 244 250 258 267 271 277 279 275 268 263 258 245 230 255 225 196 194 243 212 221 263 262 227 218 220 223 216 199 194 193 188 180 178 166 157 193 178 158 106 85 147 250 198 200 176 196 219 209 226 235 213 240 256 263 263 259 275 333 350 299 281 277 274 285 291 288 295 307 314 306 303 299 122 111 102 93 87 83 78
228 229 230 232 232 231 231 233 238 243 248 258 271 280 282 280 280 268 253 246 241 238 248 238 223 234 240 229 255 270 250 214 214 216 211 208 200 194 193 185 166 166 167 157 193 186 152 132 161 209 217 210 214 207 211 227 218 234 252 242 247 249 271 269 264 280 328 337 272 271 288 275 282 283 286 303 320 330 323 316 130 117 107 99 92 87 83 80
226 226 227 232 233 232 231 231 237 244 251 259 268 275 268 252 253 275 269 261 256 252 252 251 247 250 252 254 259 262 246 223 221 217 212 212 204 192 187 172 143 160 214 149 125 121 138 166 220 221 219 217 223 209 211 244 256 249 247 264 274 256 261 257 254 284 343 163 265 325 344 294 285 281 301 330 347 353 359 97 116 106 101 96 93 90 87 88
222 222 224 230 233 234 232 229 232 241 252 259 262 263 253 250 255 271 287 284 272 264 256 254 251 251 252 251 250 251 249 238 228 220 215 207 196 193 183 162 149 186 184 126 102 99 148 213 238 232 225 235 275 174 171 212 206 213 219 233 267 252 272 280 275 304 360 269 275 333 343 292 286 289 349 18 44 42 54 100 108 104 103 96 94 94 95 97
221 219 223 231 232 233 232 229 230 236 246 253 257 254 253 258 260 270 283 285 282 276 262 254 249 247 248 248 245 241 235 233 233 224 213 197 191 195 180 162 171 167 157 169 156 152 187 233 243 237 213 187 271 238 155 164 205 219 208 201 250 240 221 275 287 312 327 322 286 313 319 290 285 302 39 46 70 69 75 95 97 100 100 96 98 98 98 98
223 215 218 230 232 230 230 230 230 232 239 243 246 244 249 258 256 279 286 267 284 281 264 251 247 246 245 242 237 231 226 226 231 219 206 196 186 187 189 182 173 167 194 195 181 182 216 238 239 211 162 168 235 264 168 157 242 251 217 211 239 242 217 224 287 325 333 352 11 355 335 301 289 311 62 67 76 73 77 87 85 89 94 97 99 98 97 97
220 215 216 230 238 230 228 232 227 226 233 234 237 236 237 246 247 301 313 289 284 276 262 240 233 238 234 230 225 214 212 220 221 210 201 195 186 176 192 189 174 205 216 192 186 209 244 249 220 116 140 164 196 255 215 174 230 290 236 216 225 239 241 232 333 4 17 337 336 33 2 293 310 331 187 169 78 65 69 75 76 81 91 97 96 94 97 97
213 212 216 231 253 242 230 233 226 222 227 226 226 222 217 221 217 342 352 21 297 252 217 198 203 210 207 201 187 174 182 230 216 203 194 192 191 180 169 182 179 217 205 167 174 222 247 245 205 167 178 157 179 245 233 173 154 287 248 208 206 203 196 173 98 60 132 250 285 57 105 261 311 318 218 173 109 84 73 64 70 80 87 94 96 97 98 97
207 209 222 226 236 240 232 231 222 213 213 215 210 201 201 193 153 79 39 357 291 203 154 165 173 179 186 170 162 156 161 194 178 189 188 186 192 186 185 199 179 210 182 131 168 238 222 227 170 181 194 180 204 246 223 163 134 238 238 141 131 130 147 153 119 150 220 247 312 354 160 242 290 279 229 157 130 102 82 67 68 81 87 93 98 99 100 100
211 214 228 224 222 235 234 230 223 211 208 206 194 190 186 168 151 106 81 296 274 128 127 154 151 162 166 162 166 161 144 148 143 182 184 181 188 185 206 214 175 198 183 130 196 256 201 198 195 170 160 188 214 231 190 156 143 237 212 132 121 130 149 146 121 185 258 12 306 290 160 242 261 267 292 151 168 172 133 126 97 95 100 103 104 103 102 102
219 215 224 224 222 232 231 227 225 214 211 202 188 185 173 157 144 87 96 229 223 98 129 151 145 157 149 152 172 167 139 145 132 172 174 181 190 180 210 210 174 183 227 140 202 258 31 216 209 150 147 202 214 244 177 163 179 210 160 105 60 67 89 94 115 132 32 347 255 238 187 202 266 281 307 119 208 210 163 144 135 124 119 115 112 109 107 104
223 217 223 227 228 230 227 226 225 216 210 200 188 180 166 156 124 114 210 226 169 88 125 147 167 164 143 135 164 190 159 159 113 143 155 180 187 175 132 173 135 125 348 8 242 262 323 6 251 154 184 194 149 71 75 151 154 125 101 55 24 21 37 41 68 89 60 275 251 225 195 174 274 282 230 176 260 187 151 146 160 145 133 126 120 116 112 107
225 224 227 231 235 233 225 223 224 216 208 202 194 179 162 149 108 192 216 228 52 133 123 143 182 150 149 139 158 190 149 126 140 136 137 155 162 157 115 133 93 77 5 339 314 310 331 335 266 249 217 146 108 75 32 42 78 95 85 63 36 340 6 22 355 41 111 254 269 233 171 150 221 266 296 316 326 329 158 167 170 155 140 132 127 123 117 110
229 230 232 234 240 241 231 230 234 223 209 202 194 177 157 160 230 206 212 48 117 190 159 172 183 158 168 144 160 183 140 154 177 146 139 147 155 186 181 170 164 85 349 260 267 338 314 249 266 318 253 168 119 81 17 12 40 81 94 86 71 324 347 351 301 330 217 252 276 162 122 135 233 241 5 345 336 333 300 159 155 148 140 136 134 129 122 116
229 229 235 236 239 245 243 242 242 229 212 202 192 174 145 207 222 180 178 198 198 184 142 139 141 142 150 142 195 188 135 178 190 169 151 128 146 223 243 207 169 135 188 202 209 343 295 296 306 11 276 197 155 144 198 270 111 139 143 127 123 145 209 266 265 274 268 271 289 162 126 284 265 312 4 346 337 351 64 123 139 140 138 138 137 132 126 122
230 232 237 238 240 244 242 236 231 223 211 201 191 168 156 216 212 154 190 210 205 95 104 116 128 129 139 169 217 174 147 218 179 154 122 113 136 238 255 236 183 137 124 152 173 180 211 304 237 182 230 185 173 181 167 143 146 176 158 137 148 160 173 224 229 222 262 284 299 292 214 213 227 309 340 358 22 47 82 111 127 131 136 139 137 134 130 124
237 239 240 239 238 235 230 224 218 212 203 194 183 177 199 206 177 154 199 203 185 117 85 85 115 126 164 248 255 187 185 231 165 136 139 158 178 200 212 219 189 148 122 152 228 174 168 259 250 242 156 158 174 204 141 112 104 210 129 116 169 186 165 195 212 184 192 301 298 251 224 210 178 275 331 30 51 62 81 103 118 128 139 143 141 138 132 125
239 239 235 230 224 218 215 212 206 201 196 188 185 223 212 199 165 180 196 172 167 148 123 76 86 127 200 267 256 219 203 163 144 140 197 200 203 206 214 227 187 170 163 163 210 182 144 261 276 352 58 149 156 178 141 131 189 166 122 175 215 180 133 126 267 192 98 270 274 212 221 294 349 270 320 31 45 52 67 99 124 138 148 150 148 142 134 129
233 225 216 210 206 203 202 203 198 195 193 188 213 232 215 229 190 185 185 148 148 138 135 151 159 166 194 204 214 213 180 130 152 152 212 220 224 205 210 240 183 185 194 181 202 201 153 254 280 107 143 208 122 108 71 55 125 130 164 212 206 125 86 96 234 330 30 250 272 270 212 236 246 238 270 56 75 70 82 134 144 151 161 161 155 147 141 138
215 205 202 199 198 197 197 198 198 195 192 189 225 227 212 225 211 181 160 142 111 110 135 184 200 173 176 186 212 196 162 179 179 171 193 224 243 193 178 205 180 198 208 185 182 263 126 229 286 324 154 254 26 89 54 14 63 124 178 192 118 133 270 72 160 225 241 243 274 292 264 234 209 200 195 195 184 164 180 191 179 176 178 174 165 156 154 156
196 190 198 200 197 194 192 195 198 196 192 196 224 222 197 206 239 220 173 141 85 117 155 202 192 145 168 174 184 178 173 182 174 176 185 192 226 194 148 178 170 180 198 168 171 273 100 148 278 309 214 308 30 79 191 260 30 67 63 18 61 162 181 176 176 176 186 229 265 287 289 270 233 202 182 187 182 172 182 196 204 194 185 180 172 165 173 183
183 178 196 201 199 196 192 194 197 195 197 215 210 207 152 200 250 233 201 178 94 132 192 205 170 170 188 182 181 177 178 184 176 187 209 193 209 225 156 170 156 114 88 134 147 83 86 140 243 299 331 59 151 199 188 180 155 109 100 219 254 212 168 253 233 138 146 194 234 268 273 266 252 208 170 174 176 180 182 180 198 197 188 184 178 177 215 214
173 165 178 183 191 197 192 193 199 196 219 241 192 127 124 185 273 247 219 197 186 186 168 167 174 181 178 183 194 159 144 178 180 196 231 218 228 231 211 210 168 159 101 92 119 143 138 152 194 256 303 180 220 239 179 167 156 149 169 189 188 173 141 270 261 203 149 189 195 231 259 268 260 219 163 165 173 187 184 176 190 197 191 188 192 213 237 226
167 144 162 165 176 189 185 188 219 207 223 232 186 145 167 168 214 264 250 194 194 201 146 154 180 176 173 187 180 131 133 180 188 195 227 232 234 205 192 245 186 160 128 109 172 162 114 112 159 227 219 208 240 289 188 169 141 131 156 170 158 146 134 185 236 233 189 227 158 174 245 274 265 219 167 172 180 186 184 178 188 197 192 194 218 237 237 227
162 137 150 156 159 172 174 186 268 217 236 243 148 165 183 171 178 227 315 202 197 174 166 191 181 190 210 186 159 162 164 175 204 201 228 256 232 215 233 230 178 131 114 123 199 141 103 103 176 255 304 313 312 333 354 30 99 123 293 137 144 166 152 170 205 175 146 238 235 275 252 253 256 180 151 183 193 191 190 189 201 202 195 214 253 253 248 236
151 142 150 153 156 164 173 200 203 210 246 272 288 256 237 225 207 205 202 217 229 167 171 211 185 202 223 158 151 182 170 174 229 213 211 232 220 190 190 227 210 162 146 188 181 168 172 143 142 193 312 319 324 346 350 346 48 175 247 191 137 124 114 101 113 122 138 227 216 238 249 244 289 59 120 188 201 210 211 210 217 217 220 256 265 261 256 243
137 137 154 165 168 173 194 219 178 195 224 223 243 243 241 261 236 227 222 226 236 204 178 258 207 192 197 141 143 199 191 200 221 201 195 218 264 360 160 258 238 193 191 202 167 156 171 175 143 167 222 243 240 220 230 263 235 192 225 196 164 135 132 117 98 153 207 217 200 228 242 266 349 10 236 252 233 232 237 231 233 242 257 268 264 258 254 240
150 154 158 171 181 191 214 223 209 208 200 194 226 226 212 228 241 224 216 227 241 228 223 263 208 152 179 169 174 217 218 218 217 191 184 195 242 300 303 293 224 160 146 153 147 132 123 203 185 182 213 229 212 206 210 157 151 209 247 210 199 178 147 124 118 176 203 192 226 235 218 246 295 251 217 239 252 246 245 247 252 260 271 277 269 256 245 231
162 184 171 166 188 205 218 221 216 219 184 174 192 201 203 212 225 215 207 216 226 218 224 252 200 191 208 184 188 221 217 213 213 201 180 167 195 296 341 31 116 140 137 135 136 112 101 222 221 186 220 232 153 172 201 134 160 211 237 244 235 204 144 137 171 202 170 177 247 244 188 176 252 251 217 204 230 241 249 264 275 281 282 277 262 240 220 209
174 208 184 176 181 201 209 210 207 209 195 185 196 204 202 205 206 204 204 208 210 201 204 234 214 215 216 192 192 217 203 204 213 199 168 147 162 132 12 356 37 155 152 120 115 109 120 221 231 154 220 243 117 146 183 151 177 212 220 243 250 234 170 159 204 214 181 199 250 253 214 208 242 256 238 202 215 232 256 274 282 282 270 245 224 209 198 193
194 219 191 190 204 216 206 200 195 200 205 197 204 220 210 206 209 207 191 183 206 201 197 214 224 220 216 204 203 212 201 198 208 200 168 159 170 155 138 275 262 199 157 85 77 104 117 210 204 133 221 277 103 173 203 182 199 232 232 234 242 239 200 185 219 226 205 222 248 254 253 253 255 252 243 251 258 258 261 264 259 248 227 201 194 190 183 181
198 206 192 200 231 248 221 196 186 196 209 201 210 224 216 212 215 213 192 181 203 206 198 213 227 214 204 208 211 218 214 200 202 203 179 168 187 188 185 193 172 157 126 97 141 6 94 176 158 103 114 303 312 215 217 195 191 242 259 253 243 234 222 219 228 227 217 234 244 249 258 264 264 253 247 268 276 262 234 225 217 209 199 187 184 181 178 183
199 194 180 171 226 221 208 193 182 192 210 204 213 218 210 214 210 194 192 208 212 208 193 209 220 212 199 209 215 222 217 194 188 185 168 163 174 178 189 184 157 148 148 156 169 23 99 164 38 75 103 288 300 217 220 22 27 293 273 263 250 237 234 233 221 205 213 227 235 244 249 254 260 260 255 258 248 221 208 204 197 193 192 190 188 183 186 196
203 199 185 159 212 211 192 184 179 194 211 210 215 216 211 217 201 175 198 229 203 207 225 215 211 206 202 212 221 224 201 150 126 119 116 112 108 104 110 140 150 153 159 153 140 75 126 139 122 105 141 278 300 207 141 43 20 288 267 249 237 237 237 240 241 227 219 211 207 222 231 237 250 260 262 241 222 217 214 200 189 189 193 196 196 193 199 209
Height
1556 1556 1556 1556 1556 1557 1557 1557 1557 1558 1558 1558 1558 1558 1558 1558 1558 1558 1558 1558 1558 1558 1558 1558 1558 1558 1557 1557 1556 1556 1555 1554 1553 1552 1550 1549 1550 1551 1552 1552 1552 1552 1552 1551 1551 1551 1551 1552 1552 1552 1552 1551 1552 1552 1552 1552 1552 1553 1555 1559 1560 1562 1560 1554 1553 1552 1552 1550 1547 1546 1545 1546 1545 1543 1542 1541 1540 1539 1538 1536 1535 1535 1534 1534 1535 1535 1535 1534
1555 1555 1555 1556 1556 1556 1556 1556 1557 1557 1557 1557 1557 1557 1557 1558 1558 1558 1558 1558 1558 1558 1558 1557 1557 1557 1557 1556 1556 1555 1554 1554 1552 1551 1550 1549 1549 1550 1551 1551 1551 1551 1551 1551 1551 1551 1551 1551 1551 1551 1551 1552 1552 1552 1552 1552 1552 1553 1557 1560 1559 1559 1554 1549 1550 1549 1550 1549 1547 1546 1545 1545 1544 1542 1541 1540 1539 1538 1537 1533 1531 1531 1530 1531 1533 1534 1534 1533
1555 1555 1555 1555 1555 1555 1555 1556 1556 1556 1556 1556 1556 1557 1557 1557 1557 1557 1557 1557 1557 1557 1557 1556 1556 1556 1556 1555 1555 1554 1553 1553 1552 1551 1550 1549 1550 1550 1551 1551 1551 1551 1551 1551 1551 1551 1551 1550 1550 1551 1551 1551 1552 1552 1552 1552 1553 1553 1556 1559 1556 1553 1550 1548 1547 1547 1547 1547 1545 1545 1544 1543 1542 1541 1541 1540 1538 1536 1536 1532 1530 1528 1526 1527 1530 1531 1531 1531
1554 1554 1554 1554 1554 1554 1555 1555 1555 1555 1555 1555 1556 1556 1556 1556 1556 1556 1556 1556 1556 1556 1556 1556 1555 1555 1555 1555 1554 1554 1553 1552 1550 1550 1550 1550 1551 1550 1550 1550 1550 1550 1550 1550 1550 1550 1550 1550 1550 1550 1551 1551 1551 1552 1552 1551 1552 1553 1554 1555 1552 1550 1549 1547 1546 1545 1545 1545 1544 1543 1543 1542 1540 1541 1540 1540 1539 1534 1532 1531 1530 1528 1525 1525 1526 1528 1529 1528
1552 1553 1553 1553 1553 1554 1554 1554 1554 1554 1554 1554 1555 1555 1555 1555 1555 1555 1555 1555 1555 1555 1555 1555 1554 1554 1554 1554 1554 1553 1554 1553 1550 1550 1550 1550 1550 1550 1550 1550 1549 1549 1549 1549 1549 1549 1549 1549 1550 1550 1551 1551 1551 1551 1551 1550 1551 1552 1551 1550 1549 1549 1549 1546 1545 1545 1544 1544 1543 1542 1542 1540 1539 1540 1539 1539 1539 1533 1529 1530 1529 1527 1525 1524 1525 1525 1526 1526
1551 1551 1551 1552 1552 1552 1553 1553 1553 1553 1553 1553 1553 1553 1553 1554 1554 1554 1554 1554 1554 1554 1554 1554 1553 1553 1553 1553 1553 1553 1554 1553 1550 1549 1549 1549 1549 1549 1549 1549 1549 1549 1548 1548 1549 1549 1549 1549 1549 1550 1550 1550 1551 1551 1550 1550 1551 1551 1550 1548 1548 1548 1547 1545 1544 1544 1543 1543 1542 1541 1540 1539 1538 1538 1538 1537 1534 1530 1528 1529 1528 1526 1525 1524 1524 1524 1524 1525
1549 1550 1550 1550 1551 1551 1551 1551 1552 1552 1552 1552 1552 1552 1552 1552 1552 1552 1552 1553 1553 1553 1553 1553 1552 1552 1552 1552 1552 1552 1552 1550 1548 1549 1548 1548 1548 1548 1548 1548 1548 1548 1547 1548 1548 1548 1548 1548 1549 1549 1550 1550 1550 1549 1549 1549 1550 1550 1549 1547 1546 1546 1545 1544 1544 1543 1543 1541 1540 1540 1539 1538 1537 1537 1537 1534 1529 1528 1527 1527 1527 1526 1524 1523 1523 1523 1523 1523
1548 1548 1549 1549 1549 1549 1550 1550 1550 1551 1550 1551 1551 1551 1551 1551 1551 1551 1551 1551 1551 1552 1552 1551 1551 1551 1551 1551 1551 1551 1549 1547 1547 1548 1547 1547 1547 1547 1547 1547 1547 1547 1547 1547 1547 1548 1548 1548 1548 1548 1549 1549 1549 1549 1549 1549 1549 1549 1548 1547 1546 1545 1544 1543 1543 1541 1540 1539 1539 1539 1537 1536 1536 1536 1534 1530 1526 1526 1526 1525 1525 1524 1523 1523 1523 1522 1522 1522
1547 1547 1547 1548 1548 1548 1549 1549 1549 1549 1549 1549 1549 1549 1549 1549 1549 1550 1550 1550 1550 1550 1550 1550 1550 1550 1550 1549 1550 1549 1547 1545 1546 1546 1545 1545 1545 1546 1546 1546 1546 1546 1546 1546 1546 1547 1547 1547 1547 1547 1548 1548 1548 1548 1548 1548 1548 1547 1547 1546 1545 1544 1543 1542 1541 1538 1538 1537 1537 1538 1534 1533 1534 1534 1531 1525 1524 1525 1524 1524 1524 1523 1522 1522 1522 1521 1521 1520
1545 1545 1546 1546 1547 1547 1547 1548 1548 1548 1548 1548 1548 1548 1548 1548 1548 1548 1548 1548 1548 1548 1548 1548 1548 1548 1548 1548 1549 1548 1544 1544 1544 1544 1544 1544 1544 1544 1545 1545 1545 1545 1546 1545 1545 1546 1546 1546 1546 1546 1547 1547 1547 1547 1547 1548 1547 1546 1546 1545 1544 1543 1541 1540 1538 1535 1536 1535 1535 1536 1533 1531 1532 1534 1529 1523 1523 1523 1521 1522 1522 1522 1522 1521 1521 1520 1520 1519
1544 1544 1545 1545 1546 1546 1546 1546 1546 1547 1547 1547 1547 1547 1547 1547 1547 1546 1546 1546 1546 1547 1547 1546 1546 1546 1546 1546 1547 1545 1542 1543 1543 1542 1543 1543 1543 1543 1543 1544 1544 1544 1545 1545 1545 1545 1545 1545 1546 1546 1546 1546 1546 1547 1546 1546 1546 1545 1545 1544 1542 1542 1539 1537 1536 1534 1534 1533 1532 1533 1532 1530 1532 1533 1527 1521 1522 1522 1520 1519 1519 1521 1521 1521 1520 1519 1520 1519
1542 1543 1543 1544 1544 1544 1545 1545 1545 1545 1545 1545 1545 1545 1545 1545 1545 1545 1545 1545 1545 1545 1545 1545 1545 1544 1544 1544 1542 1541 1540 1541 1541 1541 1541 1541 1541 1541 1542 1542 1542 1543 1543 1544 1544 1544 1544 1545 1545 1546 1545 1546 1546 1546 1546 1545 1546 1545 1545 1545 1542 1542 1539 1534 1533 1533 1533 1532 1530 1532 1534 1531 1530 1528 1522 1520 1521 1520 1519 1517 1518 1520 1520 1519 1518 1518 1518 1517
1541 1541 1542 1542 1542 1543 1543 1543 1544 1544 1544 1544 1544 1544 1544 1543 1543 1543 1543 1543 1543 1543 1543 1543 1543 1543 1543 1541 1539 1539 1539 1539 1539 1539 1539 1539 1539 1540 1540 1541 1541 1541 1542 1542 1542 1543 1544 1544 1544 1545 1545 1546 1546 1546 1546 1545 1545 1544 1545 1545 1543 1544 1540 1531 1531 1532 1531 1531 1529 1532 1538 1534 1526 1523 1520 1521 1520 1519 1518 1516 1517 1519 1519 1518 1517 1517 1516 1516
1539 1539 1540 1540 1541 1541 1541 1542 1542 1542 1542 1543 1543 1543 1543 1542 1542 1542 1542 1542 1542 1542 1542 1542 1542 1541 1541 1538 1537 1537 1537 1537 1537 1537 1537 1537 1538 1538 1538 1539 1539 1540 1540 1541 1541 1542 1543 1543 1544 1544 1545 1545 1545 1545 1546 1546 1545 1545 1546 1546 1547 1549 1541 1530 1530 1532 1530 1530 1528 1531 1539 1534 1525 1522 1521 1520 1520 1519 1517 1515 1517 1518 1517 1517 1516 1515 1515 1514
1537 1538 1538 1539 1539 1540 1540 1540 1541 1541 1541 1541 1541 1541 1541 1541 1541 1541 1541 1540 1540 1540 1540 1540 1540 1540 1539 1536 1535 1535 1535 1535 1535 1535 1536 1536 1536 1537 1537 1537 1538 1538 1539 1539 1540 1541 1542 1543 1543 1544 1544 1545 1545 1546 1548 1548 1546 1547 1548 1548 1550 1551 1542 1532 1529 1530 1530 1529 1528 1531 1536 1532 1526 1523 1521 1519 1518 1517 1516 1515 1517 1518 1516 1516 1514 1514 1514 1513
1536 1536 1537 1537 1538 1538 1539 1539 1539 1540 1540 1540 1540 1540 1540 1540 1540 1540 1540 1539 1539 1539 1539 1539 1538 1539 1538 1534 1533 1533 1533 1534 1534 1534 1534 1534 1535 1535 1536 1536 1537 1537 1538 1538 1539 1540 1541 1542 1543 1544 1544 1544 1545 1547 1550 1551 1549 1549 1550 1549 1548 1549 1546 1539 1529 1527 1529 1529 1529 1531 1532 1530 1526 1522 1520 1518 1516 1515 1514 1514 1516 1516 1515 1515 1514 1513 1513 1513
1534 1535 1535 1536 1536 1537 1537 1538 1538 1538 1539 1539 1539 1539 1539 1539 1538 1538 1538 1538 1538 1537 1538 1538 1537 1538 1535 1532 1532 1532 1532 1532 1532 1533 1533 1533 1534 1534 1535 1535 1536 1536 1537 1538 1539 1539 1540 1542 1543 1543 1544 1545 1546 1547 1552 1555 1552 1548 1550 1549 1547 1546 1547 1543 1533 1528 1528 1529 1530 1530 1530 1529 1525 1521 1519 1516 1515 1515 1514 1514 1515 1515 1515 1514 1514 1513 1513 1512
1533 1533 1534 1534 1535 1535 1536 1536 1537 1537 1537 1538 1538 1538 1538 1537 1537 1537 1536 1536 1536 1537 1537 1536 1537 1538 1533 1529 1530 1530 1530 1531 1531 1532 1532 1532 1533 1533 1534 1535 1535 1536 1536 1537 1538 1539 1540 1541 1542 1544 1544 1546 1546 1547 1551 1551 1546 1544 1545 1547 1546 1545 1544 1542 1537 1531 1528 1529 1530 1529 1530 1527 1523 1521 1518 1515 1515 1516 1515 1515 1516 1515 1514 1514 1513 1513 1513 1512
1531 1531 1532 1533 1533 1534 1534 1535 1535 1536 1536 1536 1536 1536 1536 1536 1535 1535 1534 1534 1534 1535 1534 1533 1533 1534 1531 1527 1528 1529 1529 1530 1530 1530 1531 1531 1532 1533 1533 1534 1535 1535 1536 1537 1538 1538 1539 1541 1543 1545 1544 1544 1543 1543 1543 1540 1538 1539 1541 1544 1545 1544 1542 1540 1537 1532 1529 1531 1530 1529 1529 1526 1523 1520 1516 1514 1515 1516 1515 1515 1515 1515 1515 1514 1514 1514 1513 1513
1529 1530 1530 1531 1532 1532 1533 1533 1534 1534 1535 1535 1535 1535 1535 1534 1534 1533 1532 1532 1531 1530 1530 1529 1529 1529 1528 1527 1527 1528 1528 1528 1529 1529 1530 1530 1531 1532 1532 1533 1534 1535 1536 1536 1537 1538 1538 1541 1543 1541 1539 1538 1537 1537 1536 1536 1538 1540 1542 1544 1544 1545 1543 1538 1535 1531 1530 1532 1529 1528 1529 1526 1523 1519 1515 1513 1513 1513 1513 1514 1514 1515 1515 1515 1515 1515 1515 1514
1527 1528 1529 1530 1530 1531 1532 1532 1532 1533 1533 1534 1534 1534 1533 1533 1533 1532 1531 1529 1528 1528 1527 1527 1527 1526 1525 1526 1526 1526 1527 1527 1527 1528 1528 1529 1530 1531 1532 1533 1534 1535 1536 1536 1537 1538 1539 1542 1540 1535 1532 1532 1533 1535 1537 1538 1540 1541 1543 1544 1544 1545 1541 1535 1532 1530 1530 1531 1529 1529 1529 1525 1521 1518 1515 1513 1513 1513 1513 1513 1514 1515 1516 1517 1517 1517 1516 1516
1526 1526 1527 1528 1528 1529 1530 1530 1531 1531 1532 1532 1532 1533 1532 1532 1532 1531 1531 1528 1525 1524 1524 1523 1524 1523 1522 1523 1524 1525 1525 1525 1526 1526 1527 1528 1529 1530 1530 1532 1533 1534 1535 1536 1538 1540 1542 1541 1535 1529 1530 1532 1533 1535 1537 1539 1540 1542 1543 1545 1544 1542 1539 1534 1530 1530 1530 1529 1528 1528 1528 1524 1518 1516 1517 1516 1516 1517 1516 1514 1516 1517 1517 1518 1518 1518 1518 1517
1524 1525 1526 1526 1527 1528 1528 1529 1529 1529 1530 1531 1531 1531 1531 1531 1531 1530 1530 1529 1523 1520 1520 1520 1519 1519 1519 1520 1521 1522 1523 1522 1523 1523 1525 1526 1527 1528 1529 1531 1532 1533 1535 1535 1536 1540 1542 1536 1528 1527 1530 1533 1533 1534 1537 1539 1540 1540 1541 1544 1542 1539 1539 1535 1530 1530 1529 1529 1529 1527 1527 1524 1518 1516 1519 1521 1520 1520 1519 1517 1518 1519 1518 1519 1520 1519 1519 1518
1522 1523 1524 1524 1526 1526 1526 1527 1527 1528 1529 1529 1530 1530 1530 1530 1530 1530 1529 1528 1524 1518 1516 1515 1515 1516 1516 1517 1518 1519 1520 1520 1521 1521 1522 1524 1525 1527 1528 1528 1531 1533 1533 1533 1533 1535 1533 1527 1525 1527 1530 1532 1532 1532 1536 1539 1539 1538 1537 1539 1537 1534 1535 1534 1532 1530 1528 1529 1530 1528 1529 1525 1518 1518 1521 1522 1522 1522 1522 1521 1521 1521 1521 1521 1521 1520 1520 1519
1520 1522 1522 1523 1524 1524 1525 1526 1526 1527 1527 1527 1529 1528 1529 1530 1529 1529 1528 1528 1525 1517 1513 1512 1513 1513 1513 1514 1515 1516 1518 1518 1519 1519 1520 1522 1524 1525 1526 1527 1529 1530 1531 1531 1533 1534 1529 1524 1525 1527 1529 1531 1532 1531 1533 1536 1538 1537 1533 1531 1530 1529 1531 1533 1534 1533 1532 1534 1531 1530 1535 1529 1518 1516 1519 1521 1523 1524 1524 1523 1524 1524 1523 1522 1522 1521 1521 1520
1518 1520 1521 1522 1523 1523 1524 1524 1524 1525 1525 1526 1527 1527 1529 1529 1528 1529 1528 1531 1527 1514 1510 1511 1511 1511 1511 1512 1514 1516 1518 1517 1516 1518 1519 1520 1522 1523 1524 1525 1526 1527 1528 1530 1533 1532 1527 1523 1524 1526 1528 1530 1532 1532 1531 1533 1537 1537 1531 1528 1529 1530 1532 1533 1534 1535 1536 1537 1533 1533 1538 1536 1525 1516 1515 1520 1522 1524 1526 1526 1526 1526 1525 1524 1523 1523 1523 1522
1516 1518 1520 1521 1522 1522 1523 1523 1523 1523 1524 1525 1525 1526 1528 1527 1529 1528 1528 1535 1526 1507 1506 1510 1509 1510 1510 1512 1513 1515 1518 1516 1514 1517 1517 1519 1521 1521 1523 1524 1524 1524 1524 1528 1532 1528 1523 1522 1524 1525 1527 1529 1531 1530 1529 1530 1534 1534 1530 1529 1530 1530 1532 1533 1533 1534 1536 1537 1535 1533 1535 1538 1534 1521 1515 1519 1521 1524 1527 1528 1528 1527 1526 1526 1525 1525 1524 1524
1514 1516 1517 1519 1520 1521 1521 1522 1522 1522 1523 1524 1524 1526 1526 1526 1529 1526 1531 1539 1521 1501 1504 1508 1507 1509 1509 1511 1513 1513 1514 1513 1514 1517 1516 1518 1520 1520 1521 1522 1522 1523 1522 1526 1529 1525 1521 1522 1523 1524 1526 1528 1527 1524 1525 1526 1529 1529 1529 1531 1530 1530 1532 1532 1534 1535 1538 1540 1537 1533 1534 1537 1532 1520 1516 1518 1518 1522 1527 1529 1529 1528 1528 1527 1526 1526 1526 1525
1512 1513 1515 1517 1518 1519 1520 1520 1520 1520 1522 1523 1523 1525 1525 1527 1527 1526 1536 1538 1512 1498 1505 1506 1507 1510 1509 1511 1513 1512 1513 1513 1514 1515 1516 1518 1519 1519 1521 1521 1521 1522 1522 1524 1525 1522 1521 1522 1521 1522 1524 1524 1522 1523 1524 1524 1525 1527 1529 1531 1529 1532 1534 1534 1536 1536 1539 1542 1536 1530 1532 1532 1526 1516 1516 1518 1515 1518 1526 1529 1529 1528 1529 1528 1528 1528 1527 1527
1509 1511 1513 1515 1515 1516 1516 1516 1518 1519 1521 1522 1523 1523 1524 1526 1526 1531 1540 1528 1505 1502 1507 1506 1507 1509 1509 1512 1513 1513 1513 1513 1514 1515 1517 1518 1519 1520 1520 1521 1521 1522 1523 1524 1523 1522 1521 1522 1521 1521 1521 1520 1521 1525 1526 1525 1525 1526 1529 1529 1529 1533 1535 1537 1540 1538 1541 1539 1529 1525 1526 1528 1527 1516 1512 1516 1514 1514 1521 1527 1529 1528 1529 1529 1529 1529 1528 1528
1506 1509 1510 1511 1512 1513 1513 1513 1515 1517 1519 1520 1521 1522 1524 1525 1528 1533 1529 1513 1503 1506 1505 1506 1509 1508 1509 1511 1512 1513 1513 1514 1514 1515 1517 1518 1519 1520 1520 1521 1522 1524 1526 1524 1522 1523 1522 1521 1521 1518 1518 1519 1520 1524 1526 1527 1527 1527 1528 1529 1531 1535 1536 1539 1541 1541 1543 1533 1523 1526 1528 1530 1529 1516 1512 1519 1517 1515 1517 1520 1524 1527 1528 1529 1529 1529 1529 1530
1503 1505 1507 1508 1509 1510 1510 1510 1512 1515 1516 1517 1519 1520 1523 1527 1528 1525 1516 1506 1505 1504 1500 1504 1507 1507 1509 1510 1510 1511 1512 1513 1514 1514 1516 1518 1519 1519 1518 1518 1519 1523 1527 1525 1523 1524 1521 1518 1519 1518 1517 1518 1519 1523 1528 1528 1528 1528 1529 1532 1538 1543 1543 1541 1541 1543 1541 1530 1526 1530 1530 1530 1526 1517 1523 1527 1522 1520 1517 1516 1521 1524 1527 1529 1529 1530 1530 1531
1499 1502 1504 1505 1506 1507 1508 1509 1510 1512 1512 1515 1517 1517 1521 1526 1520 1511 1508 1505 1501 1498 1498 1501 1503 1505 1509 1509 1509 1511 1512 1512 1513 1514 1515 1517 1519 1518 1516 1516 1516 1517 1520 1524 1525 1523 1520 1518 1518 1518 1516 1515 1517 1521 1525 1526 1528 1529 1528 1531 1538 1546 1548 1543 1541 1545 1538 1527 1530 1532 1529 1526 1519 1519 1531 1532 1527 1525 1520 1518 1522 1524 1527 1528 1529 1531 1530 1531
1496 1498 1500 1501 1502 1503 1504 1507 1508 1509 1510 1512 1514 1516 1519 1518 1508 1502 1503 1500 1497 1497 1497 1498 1501 1505 1507 1507 1508 1508 1510 1512 1512 1514 1515 1517 1519 1518 1514 1514 1515 1514 1515 1523 1524 1521 1522 1519 1515 1515 1514 1513 1514 1515 1517 1520 1525 1528 1527 1529 1532 1534 1537 1536 1534 1535 1530 1525 1530 1532 1527 1520 1515 1521 1534 1532 1529 1528 1523 1523 1525 1526 1529 1529 1530 1531 1531 1532
1493 1494 1496 1496 1498 1499 1501 1504 1505 1506 1508 1508 1510 1512 1511 1505 1500 1501 1500 1496 1496 1497 1497 1498 1500 1503 1507 1507 1507 1506 1507 1510 1512 1514 1515 1516 1517 1515 1511 1510 1512 1513 1515 1521 1522 1521 1523 1518 1510 1512 1512 1511 1513 1514 1515 1518 1523 1529 1530 1529 1529 1525 1525 1529 1530 1530 1531 1531 1531 1527 1523 1522 1525 1530 1534 1532 1530 1530 1527 1527 1528 1528 1530 1530 1530 1531 1530 1532
1489 1491 1492 1493 1494 1496 1499 1501 1503 1505 1506 1506 1508 1507 1500 1494 1495 1497 1493 1491 1493 1494 1497 1501 1501 1504 1508 1507 1506 1506 1505 1507 1512 1514 1515 1516 1514 1513 1510 1506 1506 1509 1511 1514 1517 1519 1522 1517 1511 1512 1513 1512 1514 1513 1514 1516 1519 1527 1530 1526 1525 1524 1521 1526 1531 1533 1535 1534 1530 1523 1520 1526 1530 1530 1531 1533 1532 1531 1531 1530 1529 1529 1530 1530 1530 1530 1531 1531
1486 1488 1489 1490 1492 1494 1496 1498 1501 1504 1505 1506 1506 1501 1494 1491 1491 1491 1490 1490 1491 1492 1495 1500 1500 1501 1505 1505 1505 1505 1505 1507 1511 1513 1514 1515 1511 1507 1506 1504 1503 1504 1504 1506 1509 1511 1514 1514 1511 1512 1512 1513 1514 1513 1514 1516 1516 1523 1526 1521 1522 1525 1523 1527 1532 1535 1538 1537 1530 1521 1518 1522 1522 1522 1530 1534 1531 1532 1532 1531 1530 1530 1530 1530 1530 1530 1531 1531
1483 1485 1487 1488 1490 1492 1494 1497 1499 1501 1503 1504 1502 1497 1493 1491 1489 1489 1489 1489 1490 1491 1493 1497 1496 1496 1500 1503 1503 1503 1504 1507 1510 1511 1512 1512 1507 1501 1501 1502 1502 1502 1501 1503 1506 1507 1510 1513 1512 1513 1514 1513 1514 1514 1516 1517 1517 1518 1519 1518 1521 1525 1525 1528 1534 1535 1537 1537 1530 1519 1516 1517 1515 1516 1524 1527 1528 1530 1531 1530 1530 1530 1529 1529 1529 1529 1530 1530
1481 1484 1486 1486 1488 1490 1492 1495 1496 1498 1500 1499 1496 1494 1492 1490 1489 1488 1488 1489 1490 1491 1493 1494 1494 1495 1498 1500 1500 1501 1503 1505 1508 1510 1509 1508 1505 1499 1498 1499 1500 1501 1501 1501 1504 1506 1509 1513 1514 1514 1515 1514 1514 1515 1516 1517 1518 1518 1519 1520 1522 1523 1523 1526 1530 1530 1530 1533 1530 1522 1517 1513 1510 1512 1515 1518 1525 1528 1528 1529 1529 1528 1527 1527 1527 1528 1529 1529
1480 1482 1484 1484 1486 1488 1490 1493 1494 1495 1495 1492 1489 1490 1490 1489 1488 1488 1488 1489 1490 1491 1493 1493 1493 1495 1497 1498 1498 1499 1501 1503 1506 1507 1505 1503 1501 1499 1498 1498 1498 1500 1500 1500 1503 1506 1509 1513 1515 1516 1517 1516 1514 1514 1512 1512 1516 1518 1519 1522 1522 1523 1525 1526 1527 1526 1526 1529 1529 1527 1522 1511 1509 1514 1513 1515 1523 1524 1524 1527 1527 1526 1525 1525 1526 1528 1527 1528
1478 1480 1482 1483 1485 1486 1488 1491 1492 1492 1491 1488 1486 1488 1489 1488 1488 1487 1487 1489 1489 1490 1491 1491 1492 1494 1495 1496 1497 1498 1500 1502 1503 1505 1503 1500 1498 1498 1497 1497 1497 1498 1499 1500 1502 1505 1508 1512 1514 1515 1516 1515 1512 1513 1512 1511 1514 1515 1516 1518 1519 1520 1524 1527 1527 1524 1522 1525 1524 1525 1521 1511 1509 1515 1514 1515 1520 1520 1521 1524 1523 1523 1524 1525 1526 1526 1526 1527
1476 1478 1480 1481 1483 1484 1487 1489 1489 1489 1488 1486 1485 1486 1487 1487 1487 1487 1487 1488 1489 1489 1490 1490 1491 1492 1493 1493 1496 1498 1500 1501 1502 1503 1502 1499 1497 1497 1497 1497 1497 1496 1498 1501 1503 1504 1507 1511 1513 1513 1514 1514 1513 1514 1515 1514 1514 1514 1515 1517 1518 1519 1521 1525 1527 1523 1522 1525 1525 1524 1522 1514 1512 1516 1515 1515 1517 1518 1520 1521 1521 1522 1523 1524 1525 1525 1525 1525
1474 1477 1479 1480 1481 1483 1486 1489 1489 1488 1486 1484 1483 1484 1485 1486 1487 1487 1487 1488 1489 1489 1490 1490 1490 1491 1491 1492 1494 1497 1499 1500 1500 1500 1500 1499 1497 1497 1498 1498 1497 1496 1497 1501 1503 1504 1506 1510 1512 1512 1512 1514 1516 1515 1514 1514 1514 1514 1515 1517 1518 1518 1518 1521 1523 1524 1526 1526 1524 1526 1523 1514 1513 1515 1515 1517 1518 1517 1519 1519 1520 1521 1522 1523 1524 1523 1524 1523
1473 1475 1477 1479 1481 1482 1484 1486 1487 1487 1486 1484 1484 1484 1484 1485 1485 1486 1487 1488 1488 1489 1489 1489 1488 1488 1489 1490 1492 1494 1497 1499 1499 1497 1498 1498 1497 1497 1498 1497 1498 1497 1497 1498 1499 1500 1503 1508 1511 1514 1516 1516 1517 1518 1518 1516 1514 1514 1515 1518 1519 1518 1520 1524 1524 1526 1530 1525 1520 1525 1521 1511 1513 1517 1516 1517 1518 1517 1519 1519 1520 1521 1521 1522 1522 1522 1522 1521
1473 1476 1478 1479 1480 1481 1481 1481 1482 1485 1485 1484 1485 1484 1484 1485 1483 1483 1486 1486 1487 1488 1488 1487 1486 1486 1488 1491 1492 1492 1493 1494 1494 1495 1496 1497 1497 1497 1496 1497 1498 1497 1496 1497 1496 1496 1501 1505 1507 1511 1515 1515 1512 1515 1518 1516 1514 1516 1517 1518 1520 1519 1519 1523 1524 1527 1529 1524 1521 1523 1517 1511 1515 1518 1516 1517 1518 1517 1518 1518 1519 1519 1520 1520 1519 1519 1519 1519
1471 1474 1477 1479 1480 1479 1478 1478 1480 1482 1482 1484 1485 1483 1483 1484 1481 1480 1484 1485 1486 1487 1487 1486 1485 1487 1489 1490 1492 1493 1492 1491 1492 1493 1494 1496 1497 1497 1497 1497 1497 1496 1496 1496 1496 1497 1502 1506 1504 1503 1504 1505 1505 1509 1514 1514 1511 1513 1515 1516 1518 1520 1520 1521 1525 1527 1525 1524 1524 1519 1514 1515 1516 1515 1516 1517 1517 1517 1517 1517 1517 1517 1516 1516 1516 1516 1516 1517
1468 1469 1471 1475 1477 1477 1477 1477 1478 1478 1478 1481 1482 1479 1479 1480 1480 1480 1482 1482 1483 1485 1486 1485 1485 1486 1487 1488 1491 1491 1490 1491 1492 1491 1493 1495 1497 1498 1497 1497 1496 1496 1496 1496 1496 1499 1503 1504 1504 1503 1502 1503 1506 1510 1513 1513 1510 1510 1513 1513 1513 1518 1521 1522 1524 1523 1521 1523 1522 1514 1514 1519 1514 1509 1513 1516 1515 1516 1515 1514 1513 1513 1513 1513 1513 1514 1514 1515
1465 1464 1464 1467 1469 1469 1470 1471 1472 1474 1476 1477 1476 1474 1475 1477 1478 1479 1479 1479 1480 1482 1484 1484 1482 1482 1482 1485 1488 1489 1489 1491 1491 1489 1491 1494 1496 1498 1498 1497 1497 1496 1496 1497 1496 1498 1501 1502 1504 1507 1506 1506 1511 1513 1513 1513 1513 1513 1513 1511 1509 1513 1519 1522 1521 1519 1519 1520 1516 1510 1514 1518 1511 1507 1511 1513 1513 1513 1512 1511 1510 1510 1510 1511 1511 1512 1513 1514
1461 1461 1462 1463 1463 1462 1462 1463 1466 1470 1471 1473 1473 1471 1470 1472 1473 1473 1473 1476 1478 1478 1478 1479 1477 1477 1479 1482 1484 1485 1485 1486 1486 1486 1488 1491 1493 1495 1497 1497 1497 1496 1496 1497 1497 1498 1500 1502 1506 1508 1506 1507 1513 1515 1514 1515 1515 1514 1513 1512 1511 1513 1517 1519 1518 1516 1517 1518 1513 1511 1514 1512 1507 1506 1508 1508 1508 1509 1509 1508 1508 1507 1508 1509 1509 1511 1511 1512
1458 1458 1459 1461 1460 1460 1461 1462 1464 1467 1468 1470 1470 1466 1465 1467 1468 1468 1469 1471 1473 1472 1472 1474 1473 1473 1477 1479 1480 1479 1477 1477 1479 1480 1483 1486 1489 1491 1492 1491 1492 1496 1497 1497 1498 1499 1499 1503 1508 1509 1507 1510 1514 1514 1513 1515 1516 1515 1512 1510 1511 1515 1517 1517 1516 1516 1519 1518 1513 1513 1517 1511 1503 1503 1505 1505 1505 1506 1506 1506 1506 1506 1507 1507 1508 1509 1510 1510
1456 1456 1457 1458 1459 1459 1460 1460 1461 1464 1465 1465 1463 1461 1462 1464 1463 1464 1466 1466 1466 1467 1468 1469 1470 1472 1475 1476 1476 1474 1473 1473 1474 1474 1476 1479 1481 1484 1485 1485 1488 1492 1495 1497 1498 1497 1499 1504 1508 1509 1509 1512 1516 1517 1514 1514 1517 1517 1511 1506 1509 1513 1512 1510 1511 1512 1513 1513 1513 1516 1518 1510 1500 1500 1504 1504 1504 1504 1503 1503 1504 1505 1505 1506 1507 1507 1508 1509
1455 1455 1456 1458 1458 1457 1457 1458 1459 1460 1458 1455 1455 1457 1459 1460 1460 1462 1465 1465 1464 1465 1466 1466 1468 1471 1473 1473 1472 1471 1472 1473 1474 1475 1476 1477 1478 1480 1482 1483 1485 1488 1491 1495 1497 1498 1499 1502 1506 1509 1510 1515 1520 1519 1515 1518 1522 1515 1501 1497 1502 1506 1505 1506 1506 1505 1504 1507 1511 1513 1509 1502 1498 1501 1503 1502 1502 1501 1500 1501 1502 1503 1504 1505 1505 1506 1507 1507